Weather History for Liberia, Costa Rica

Change the Weather History Date:

Tuesday, April 1, 2014

  Actual Average Record
Temperature  
Mean Temperature 87 °F -  
Max Temperature 97 °F 93 °F 98 °F (2013)
Min Temperature 77 °F 76 °F 69 °F (2004)
Cooling Degree Days 22    
Growing Degree Days 37 (Base 50)    
Moisture  
Dew Point 58 °F    
Average Humidity 34    
Maximum Humidity 54    
Minimum Humidity 20    
Precipitation  
Precipitation 0.00 in - - ()
Sea Level Pressure  
Sea Level Pressure 29.82 in    
Wind  
Wind Speed 18 mph ()    
Max Wind Speed 23 mph    
Max Gust Speed 34 mph    
Visibility 12.0 miles    
Events      
Averages and records for this station are not official NWS values.
T = Trace of Precipitation, MM = Missing Value Source: Averaged Metar Reports

Daily Weather History Graph

Daily Weather History Graph

Search for Another Location

Airport:

Trip Planner

Search our weather history database for the weather conditions in past years. The results will help you decide how hot, cold, wet, or windy it might be!

Date:

Astronomy

Apr. 01, 2014 Rise Set
Actual Time 5:39 AM CST 5:52 PM CST
Civil Twilight 5:18 AM CST 6:14 PM CST
Nautical Twilight 4:53 AM CST 6:38 PM CST
Astronomical Twilight 4:28 AM CST 7:03 PM CST
Moon 7:02 AM CST (4/1) 7:48 PM CST (4/1)
Length of Visible Light 12h 55m
Length of Day
12h 13m
Waxing Crescent, 5% of the Moon is Illuminated
Apr 1
Waxing Crescent
Apr 7
First Quarter
Apr 15
Full
Apr 22
Last Quarter
Apr 29
New

Hourly Weather History & Observations

Time (CST) Temp. Heat Index Dew Point Humidity Pressure Visibility Wind Dir Wind Speed Gust Speed Precip Events Conditions
6:00 AM 80 °F - 60 °F 40% 29.86 in 12 mi East 23.0 mph - -  
6:00 AM 78.8 °F - 60.8 °F 54% 29.82 in - East 23.0 mph - N/A   Clear
7:00 AM 82.4 °F 82.5 °F 59.0 °F 45% 29.84 in - East 18.4 mph 29.9 mph N/A   Clear
8:00 AM 86.0 °F 84.9 °F 57.2 °F 37% 29.87 in - East 23.0 mph 34.5 mph N/A   Clear
8:05 AM 86.0 °F 84.9 °F 57.2 °F 37% 29.87 in - East 23.0 mph 34.5 mph N/A   Clear
9:00 AM 89 °F - 60 °F 27% 29.91 in 12 mi ENE 20.7 mph - -  
9:00 AM 89.6 °F 88.9 °F 59.0 °F 36% 29.88 in - ENE 20.7 mph 32.2 mph N/A   Clear
10:00 AM 91.4 °F 91.4 °F 60.8 °F 36% 29.87 in - ENE 17.3 mph 28.8 mph N/A   Clear
11:00 AM 93.2 °F 91.9 °F 57.2 °F 30% 29.85 in - ENE 19.6 mph - N/A   Clear
12:00 PM 95.0 °F 93.0 °F 55.4 °F 26% 29.84 in - ENE 18.4 mph - N/A   Clear
1:00 PM 95.0 °F 93.0 °F 55.4 °F 26% 29.80 in - ENE 17.3 mph - N/A   Clear
2:00 PM 95.0 °F 94.4 °F 59.0 °F 30% 29.77 in - ENE 18.4 mph - N/A   Clear
3:00 PM 96 °F - 59 °F 20% 29.79 in 12 mi NE 21.9 mph - -  
3:00 PM 95.0 °F 94.4 °F 59.0 °F 30% 29.76 in - NE 21.9 mph - N/A   Clear
4:00 PM 93.2 °F 93.3 °F 60.8 °F 34% 29.76 in - ENE 21.9 mph - N/A   Clear
5:00 PM 93.2 °F 92.6 °F 59.0 °F 32% 29.75 in - ENE 23.0 mph - N/A   Clear
6:00 PM 88 °F - 56 °F 24% 29.80 in 12 mi ENE 19.6 mph - -  
6:00 PM 87.8 °F 86.1 °F 55.4 °F 33% 29.77 in - ENE 19.6 mph - N/A   Clear
7:00 PM 86.0 °F 84.2 °F 53.6 °F 33% 29.79 in - ENE 19.6 mph - N/A   Clear
8:00 PM 84.2 °F 83.8 °F 59.0 °F 42% 29.80 in - East 21.9 mph - N/A   Clear